Location: North Evanston
(42.0634°N, 87.6976°W)
Time: 13:30:18
(UTC+00:00)

Vanguard 2 Rocket - Pass Details

Date: 18 May 2026
Orbit: 553 x 3286 km, 32.9° (Epoch: 6 June)

Event Time Altitude Azimuth Distance (km) Brightness Sun altitude
Rises 14:18:08 0° 209° (SSW) 4,282 10.2 40.8°
Reaches altitude 10° 14:21:02 10° 198° (SSW) 3,646 10.0 41.3°
Maximum altitude 14:29:22 30° 141° (SE) 3,196 10.8 42.8°
Drops below altitude 10° 14:41:57 10° 89° (E) 5,594 11.9 45.1°
Sets 14:47:45 0° 81° (E) 6,941 12.0 46.1°
